Observations for Trim Patrick St
| Time | AQI | Temp °C | Hum % | Pres Pa | CO μg/m³ | H₂S μg/m³ | NO μg/m³ | NO₂ μg/m³ | O₃ μg/m³ | SO₂ μg/m³ | PM1 μg/m³ | PM2.5 μg/m³ | PM10 μg/m³ |
|---|---|---|---|---|---|---|---|---|---|---|---|---|---|
| Friday 31 July 2026 | |||||||||||||
| 21:32 | 3 | 17.7 | 55 | 69,236 | 0 | 9.68 | 1.1 | 22.27 | 55.6 | 0.76 | 5.43 | 9.83 | 10.82 |
| 21:31 | 3 | 17.7 | 54 | 69,201 | 0 | 8.73 | 1.05 | 25.99 | 53.9 | 0.43 | 6.29 | 11.47 | 12.62 |
| 21:30 | 3 | 17.7 | 55 | 69,155 | 0 | 8.5 | 1.06 | 22.13 | 53.72 | 1.1 | 4.57 | 9.87 | 10.86 |
| 21:29 | 3 | 17.8 | 55 | 69,096 | 0 | 8.5 | 1.08 | 17.15 | 50.78 | 1.34 | 5.43 | 9.88 | 10.86 |
| 21:28 | 3 | 17.8 | 54 | 69,072 | 0 | 9.36 | 1.04 | 24.02 | 55.02 | 0.23 | 3.71 | 9.21 | 10.13 |
| 21:27 | 3 | 17.8 | 54 | 69,039 | 0 | 9.47 | 1.03 | 18.71 | 55.2 | 0.48 | 3.71 | 8.39 | 9.23 |
| 21:26 | 3 | 17.9 | 54 | 68,995 | 0 | 9.83 | 1.04 | 30.53 | 56.68 | 0.72 | 3.71 | 8.43 | 9.27 |
| 21:23 | 3 | 17.9 | 54 | 68,918 | 0 | 7.19 | 1.03 | 17.46 | 54.83 | 0.17 | 2.86 | 8.46 | 9.31 |
| 21:21 | 3 | 18 | 53 | 68,906 | 0 | 7.82 | 1.08 | 18.13 | 56.71 | 0.57 | 2.86 | 8.48 | 9.33 |
| 21:20 | 3 | 18 | 53 | 68,912 | 0 | 7.79 | 1.1 | 18.5 | 57.4 | 0.29 | 3.71 | 8.47 | 9.31 |
| 21:18 | 3 | 18.1 | 53 | 68,863 | 0 | 7.13 | 1.12 | 16.65 | 61 | 0.21 | 2 | 6.97 | 7.66 |
| 21:17 | 3 | 18.1 | 53 | 68,855 | 0 | 6.85 | 1.07 | 16.99 | 56.03 | 0.19 | 2.86 | 7.72 | 8.49 |
| 21:13 | 3 | 18.3 | 52 | 68,851 | 0 | 6.11 | 1.06 | 19.43 | 55.86 | 0.23 | 2.86 | 7.05 | 7.76 |
| 21:12 | 3 | 18.3 | 52 | 68,869 | 0 | 6.69 | 1.06 | 12.89 | 60.66 | 0.72 | 2 | 7.79 | 8.57 |
| 21:11 | 3 | 18.3 | 52 | 68,831 | 0 | 6.22 | 1.06 | 14.73 | 61.11 | 0.95 | 2 | 7.79 | 8.57 |
| 21:10 | 3 | 18.4 | 52 | 68,815 | 0 | 6.29 | 1.06 | 13.08 | 62.22 | 0.49 | 2 | 7.04 | 7.74 |
| 21:09 | 3 | 18.4 | 52 | 68,821 | 0 | 6.21 | 1.06 | 14.98 | 60.76 | 0.71 | 2.86 | 7.78 | 8.56 |
| 21:08 | 3 | 18.4 | 51 | 68,829 | 0 | 5.87 | 1.09 | 12.14 | 57.74 | 0.29 | 2.86 | 7.88 | 8.67 |
| 21:07 | 3 | 18.5 | 52 | 68,841 | 0 | 6.71 | 1.09 | 14.1 | 60.91 | 0.91 | 2.86 | 8.54 | 9.39 |
| 21:06 | 3 | 18.5 | 52 | 68,825 | 0 | 6.89 | 1.08 | 14.14 | 60.59 | 0.99 | 2 | 7.84 | 8.62 |